CW1575 Weather Reports


Display with metric or nautical units.
time (UTC)temp
F
wind
direction
speed
MPH
gust
MPH
rain 1hr
in
rain 24hr
in
rain mn
in
humidity
%
barometer
mb
20141031191530 56 120 2.0 5.0 0.00 0.00 0.00 39 1023.3
20141031190528 56 289 1.0 5.0 0.00 0.00 0.00 41 1023.7
20141031185528 55 325 3.0 6.0 0.00 0.00 0.00 42 1024.0
20141031184529 54 279 2.0 3.0 0.00 0.00 0.00 44 1024.3
20141031183529 52 334 1.0 6.0 0.00 0.00 0.00 45 1024.4
20141031182531 50 306 1.0 6.0 0.00 0.00 0.00 48 1024.8
20141031181532 49 16 3.0 6.0 0.00 0.00 0.00 50 1025.0
20141031180529 48 23 1.0 3.0 0.00 0.00 0.00 50 1025.2
20141031175529 47 25 2.0 6.0 0.00 0.00 0.00 51 1025.5
20141031174529 47 130 2.0 3.0 0.00 0.00 0.00 51 1025.6
20141031173530 46 44 4.0 5.0 0.00 0.00 0.00 52 1025.8
20141031172529 46 26 1.0 6.0 0.00 0.00 0.00 54 1025.9
20141031171528 46 25 3.0 5.0 0.00 0.00 0.00 54 1026.2
20141031170529 46 349 3.0 5.0 0.00 0.00 0.00 56 1026.1
20141031165529 46 103 1.0 3.0 0.00 0.00 0.00 54 1026.6
20141031164528 45 71 2.0 3.0 0.00 0.00 0.00 56 1026.6
20141031163528 45 334 2.0 3.0 0.00 0.00 0.00 58 1026.7
20141031162528 45 315 2.0 5.0 0.00 0.00 0.00 58 1027.0
20141031161528 44 297 2.0 3.0 0.00 0.00 0.00 60 1027.0
20141031160528 43 26 2.0 3.0 0.00 0.00 0.00 62 1027.1
20141031155529 41 319 1.0 3.0 0.00 0.00 0.00 65 1027.7
20141031154529 40 275 2.0 3.0 0.00 0.00 0.00 69 1027.9
20141031153528 38 346 2.0 5.0 0.00 0.00 0.00 73 1028.2
20141031152529 37 32 3.0 5.0 0.00 0.00 0.00 77 1027.8
20141031151528 35 1 2.0 3.0 0.00 0.00 0.00 79 1027.9
20141031150529 34 355 1.0 3.0 0.00 0.00 0.00 82 1028.0
20141031145528 33 333 1.0 2.0 0.00 0.00 0.00 84 1028.2
20141031144529 32 46 0.0 2.0 0.00 0.00 0.00 85 1028.1
20141031143529 32 46 0.0 2.0 0.00 0.00 0.00 86 1028.1
20141031142528 31 46 0.0 1.0 0.00 0.00 0.00 87 1027.9
20141031141529 31 46 0.0 1.0 0.00 0.00 0.00 86 1027.9
20141031140528 30 46 0.0 2.0 0.00 0.00 0.00 87 1027.7
20141031135529 30 46 0.0 2.0 0.00 0.00 0.00 86 1027.7
20141031134529 30 306 1.0 3.0 0.00 0.00 0.00 86 1027.6
20141031133535 30 317 1.0 2.0 0.00 0.00 0.00 85 1027.5
20141031132528 30 342 0.0 1.0 0.00 0.00 0.00 85 1027.5
20141031131529 30 342 1.0 2.0 0.00 0.00 0.00 84 1027.6
20141031130529 30 236 0.0 1.0 0.00 0.00 0.00 84 1027.6
20141031125528 30 236 0.0 1.0 0.00 0.00 0.00 84 1027.8
20141031124528 30 236 0.0 1.0 0.00 0.00 0.00 84 1027.8
20141031123528 30 236 0.0 1.0 0.00 0.00 0.00 83 1027.7
20141031122528 30 236 0.0 1.0 0.00 0.00 0.00 83 1027.8
20141031121529 30 236 0.0 1.0 0.00 0.00 0.00 83 1027.9
20141031120529 31 236 0.0 1.0 0.00 0.00 0.00 82 1027.8
20141031115528 31 236 0.0 1.0 0.00 0.00 0.00 82 1027.8
20141031114529 31 236 0.0 1.0 0.00 0.00 0.00 81 1027.8
20141031113529 31 236 0.0 1.0 0.00 0.00 0.00 81 1027.8
20141031112528 31 236 0.0 1.0 0.00 0.00 0.00 80 1027.9
20141031111529 32 236 0.0 1.0 0.00 0.00 0.00 80 1027.9
20141031110529 32 236 0.0 0.0 0.00 0.00 0.00 79 1027.9
20141031105529 32 236 0.0 1.0 0.00 0.00 0.00 79 1027.9
20141031104528 32 236 1.0 1.0 0.00 0.00 0.00 78 1028.0
20141031103528 32 236 0.0 2.0 0.00 0.00 0.00 78 1028.1
20141031102529 33 236 1.0 2.0 0.00 0.00 0.00 77 1028.1
20141031101529 33 236 0.0 1.0 0.00 0.00 0.00 77 1028.2
20141031100528 33 236 0.0 1.0 0.00 0.00 0.00 76 1028.1
20141031095528 33 236 0.0 2.0 0.00 0.00 0.00 76 1028.3
20141031094528 34 236 0.0 1.0 0.00 0.00 0.00 74 1028.4
20141031093528 34 236 0.0 2.0 0.00 0.00 0.00 74 1028.5
20141031092529 34 236 0.0 1.0 0.00 0.00 0.00 73 1028.5
20141031091528 34 236 0.0 1.0 0.00 0.00 0.00 73 1028.6
20141031090544 35 236 0.0 2.0 0.00 0.00 0.00 73 1028.6
20141031085529 35 236 0.0 1.0 0.00 0.00 0.00 72 1028.7
20141031084529 35 236 0.0 2.0 0.00 0.00 0.00 73 1028.8
20141031083528 35 236 1.0 2.0 0.00 0.00 0.00 73 1028.9
20141031082528 35 236 1.0 2.0 0.00 0.00 0.00 72 1028.9
20141031081529 36 236 1.0 2.0 0.00 0.00 0.00 72 1028.9
20141031080529 36 236 1.0 2.0 0.00 0.00 0.00 72 1028.9
20141031075528 36 230 1.0 2.0 0.00 0.00 0.00 72 1029.3
20141031074528 36 290 0.0 2.0 0.00 0.00 0.00 72 1029.4
20141031073528 36 280 1.0 2.0 0.00 0.00 0.00 72 1029.6
20141031072528 36 247 1.0 2.0 0.00 0.00 0.00 72 1029.6
20141031071528 37 247 0.0 2.0 0.00 0.00 0.00 72 1029.6
20141031070528 37 311 1.0 1.0 0.00 0.00 0.00 72 1029.7
20141031065528 37 311 1.0 1.0 0.00 0.00 0.00 72 1029.8
20141031064528 37 311 0.0 1.0 0.00 0.00 0.00 72 1029.9
20141031063529 38 311 0.0 1.0 0.00 0.00 0.00 72 1030.0
20141031062528 38 311 1.0 2.0 0.00 0.00 0.00 72 1029.7
20141031061515 38 311 0.0 1.0 0.00 0.00 0.00 70 1029.8
20141031060529 39 311 0.0 1.0 0.00 0.00 0.00 69 1029.8
20141031055528 39 311 0.0 1.0 0.00 0.00 0.00 69 1029.8
20141031054528 39 311 0.0 2.0 0.00 0.00 0.00 69 1029.7
20141031053528 39 311 2.0 2.0 0.00 0.00 0.00 68 1029.8
20141031052529 40 210 0.0 2.0 0.00 0.00 0.00 68 1029.8
20141031051529 40 210 1.0 2.0 0.00 0.00 0.00 67 1029.8
20141031050528 40 210 1.0 1.0 0.00 0.00 0.00 66 1029.9
20141031045528 41 210 0.0 3.0 0.00 0.00 0.00 66 1030.3
20141031044528 41 210 2.0 3.0 0.00 0.00 0.00 64 1030.3
20141031043528 41 119 0.0 1.0 0.00 0.00 0.00 62 1030.3
20141031042528 42 119 0.0 2.0 0.00 0.00 0.00 63 1030.3
20141031041528 42 119 0.0 1.0 0.00 0.00 0.00 62 1030.1
20141031040528 42 119 0.0 2.0 0.00 0.00 0.00 63 1030.2
20141031035529 43 119 0.0 1.0 0.00 0.00 0.00 62 1030.1
20141031034528 43 119 0.0 1.0 0.00 0.00 0.00 60 1029.9
20141031033529 44 119 0.0 1.0 0.00 0.00 0.00 59 1029.9
20141031032528 44 119 0.0 1.0 0.00 0.00 0.00 56 1029.7
20141031031529 45 119 0.0 1.0 0.00 0.00 0.00 55 1029.7
20141031030528 45 119 1.0 2.0 0.00 0.00 0.00 54 1029.6
20141031025528 46 119 1.0 2.0 0.00 0.00 0.00 54 1029.8
20141031024528 46 119 0.0 2.0 0.00 0.00 0.00 52 1029.7
20141031023528 47 119 0.0 1.0 0.00 0.00 0.00 50 1029.6
20141031022528 47 119 0.0 2.0 0.00 0.00 0.00 49 1029.6
20141031021528 48 119 0.0 1.0 0.00 0.00 0.00 48 1029.4
20141031020529 49 119 0.0 2.0 0.00 0.00 0.00 46 1029.2
20141031015528 49 111 0.0 1.0 0.00 0.00 0.00 45 1029.3
20141031014528 50 111 1.0 3.0 0.00 0.00 0.00 45 1029.1
20141031013529 51 44 0.0 1.0 0.00 0.00 0.00 43 1029.1
20141031012528 52 44 0.0 1.0 0.00 0.00 0.00 42 1029.0
20141031011528 52 44 0.0 1.0 0.00 0.00 0.00 40 1028.7
20141031010528 53 44 1.0 2.0 0.00 0.00 0.00 39 1028.5
20141031005528 53 44 1.0 2.0 0.00 0.00 0.00 39 1028.8
20141031004528 54 44 0.0 2.0 0.00 0.00 0.00 38 1028.7
20141031003528 54 44 0.0 3.0 0.00 0.00 0.00 37 1028.5
20141031002528 55 94 1.0 3.0 0.00 0.00 0.00 36 1028.4
20141031001529 56 42 1.0 2.0 0.00 0.00 0.00 35 1028.4
20141031000644 56 42 1.0 2.0 0.00 0.00 0.00 35 1028.2
20141030235528 57 42 1.0 3.0 0.00 0.00 0.00 34 1028.1
20141030234529 57 84 1.0 6.0 0.00 0.00 0.00 33 1027.9
20141030233529 58 52 1.0 5.0 0.00 0.00 0.00 33 1027.8
20141030232528 58 71 2.0 7.0 0.00 0.00 0.00 33 1027.7
20141030231528 59 64 2.0 5.0 0.00 0.00 0.00 32 1027.7
20141030230528 59 118 2.0 7.0 0.00 0.00 0.00 32 1027.6
20141030225528 60 57 2.0 9.0 0.00 0.00 0.00 31 1027.6
20141030224528 61 25 3.0 9.0 0.00 0.00 0.00 30 1027.5
20141030223529 61 18 3.0 8.0 0.00 0.00 0.00 30 1027.3
20141030222528 62 105 3.0 8.0 0.00 0.00 0.00 30 1027.1
20141030221528 63 20 4.0 7.0 0.00 0.00 0.00 29 1026.9
20141030220528 63 342 3.0 10.0 0.00 0.00 0.00 28 1027.1
20141030215528 64 32 5.0 12.0 0.00 0.00 0.00 28 1027.0
20141030214528 65 12 2.0 9.0 0.00 0.00 0.00 27 1027.0
20141030213528 66 30 6.0 12.0 0.00 0.00 0.00 27 1027.0
20141030212529 66 31 3.0 7.0 0.00 0.00 0.00 28 1027.1
20141030211528 66 12 3.0 8.0 0.00 0.00 0.00 27 1026.8
20141030210528 65 35 2.0 7.0 0.00 0.00 0.00 27 1026.9
20141030205528 66 105 1.0 7.0 0.00 0.00 0.00 27 1026.9
20141030204528 66 51 2.0 5.0 0.00 0.00 0.00 28 1026.9
20141030203527 65 69 3.0 9.0 0.00 0.00 0.00 27 1026.9
20141030202529 65 272 1.0 9.0 0.00 0.00 0.00 28 1026.9
20141030201528 65 48 3.0 8.0 0.00 0.00 0.00 27 1026.8
20141030200528 64 125 1.0 3.0 0.00 0.00 0.00 28 1026.8
20141030195528 63 113 4.0 8.0 0.00 0.00 0.00 28 1027.5
20141030194528 62 7 2.0 9.0 0.00 0.00 0.00 30 1027.6
20141030193528 62 91 2.0 3.0 0.00 0.00 0.00 29 1027.7
20141030192528 62 128 2.0 8.0 0.00 0.00 0.00 30 1027.9